Radiation Dose at Monitoring Post of Fukushima Daini Nuclear Power Station
Date,Time,MP-1(microSv/h),MP-2(microSv/h),MP-3(microSv/h),MP-4(microSv/h),MP-5(microSv/h),MP-6(microSv/h),MP-7(microSv/h),Wind Direction,Wind Velocity(m/s),Rain
2017/05/27,00:00,0.368,0.222,0.379,0.350,0.320,0.184,0.139,north,4.2,No
2017/05/27,00:10,0.369,0.223,0.380,0.353,0.322,0.186,0.139,north,4.3,No
2017/05/27,00:20,0.367,0.221,0.379,0.349,0.320,0.183,0.139,north,5.3,No
2017/05/27,00:30,0.369,0.222,0.378,0.352,0.323,0.184,0.139,north,3.8,No
2017/05/27,00:40,0.368,0.223,0.380,0.349,0.323,0.185,0.139,north,3.9,Yes
2017/05/27,00:50,0.370,0.221,0.378,0.353,0.320,0.185,0.139,north-northwest,2.1,Yes
2017/05/27,01:00,0.366,0.222,0.380,0.349,0.321,0.185,0.139,north,4.4,Yes
2017/05/27,01:10,0.368,0.222,0.379,0.353,0.320,0.186,0.140,north,3.5,No
2017/05/27,01:20,0.368,0.223,0.380,0.351,0.322,0.185,0.139,north,3.4,No
2017/05/27,01:30,0.368,0.222,0.379,0.352,0.320,0.185,0.140,north,3.3,No
2017/05/27,01:40,0.368,0.222,0.381,0.351,0.323,0.185,0.139,north,3.2,No
2017/05/27,01:50,0.367,0.222,0.379,0.351,0.320,0.186,0.139,north,3.3,No
2017/05/27,02:00,0.369,0.221,0.380,0.352,0.322,0.185,0.139,north,4.3,No
2017/05/27,02:10,0.368,0.223,0.379,0.349,0.322,0.185,0.139,north,5.3,Yes
2017/05/27,02:20,0.371,0.223,0.378,0.351,0.321,0.184,0.140,north,4.8,Yes
2017/05/27,02:30,0.369,0.221,0.381,0.348,0.324,0.186,0.139,north,5.0,Yes
2017/05/27,02:40,0.370,0.223,0.379,0.353,0.322,0.185,0.140,north,4.7,Yes
2017/05/27,02:50,0.367,0.223,0.381,0.350,0.324,0.185,0.139,north,4.0,No
2017/05/27,03:00,0.370,0.222,0.379,0.352,0.321,0.186,0.139,north,3.6,No
2017/05/27,03:10,0.369,0.223,0.380,0.351,0.323,0.185,0.140,north,4.9,No
2017/05/27,03:20,0.368,0.222,0.378,0.352,0.320,0.184,0.139,north,4.7,No
2017/05/27,03:30,0.368,0.222,0.380,0.349,0.322,0.184,0.139,north,4.5,No
2017/05/27,03:40,0.368,0.223,0.380,0.351,0.321,0.185,0.139,north,4.1,No
2017/05/27,03:50,0.370,0.221,0.378,0.351,0.320,0.186,0.139,north,5.0,No
2017/05/27,04:00,0.367,0.223,0.380,0.350,0.324,0.184,0.138,north,4.8,No
2017/05/27,04:10,0.369,0.223,0.378,0.351,0.320,0.185,0.140,north,4.7,No
2017/05/27,04:20,0.367,0.222,0.379,0.349,0.323,0.184,0.139,north,4.5,No
2017/05/27,04:30,0.369,0.223,0.378,0.351,0.321,0.185,0.138,north,4.0,No
2017/05/27,04:40,0.368,0.222,0.382,0.351,0.322,0.184,0.139,north,4.7,No
2017/05/27,04:50,0.368,0.223,0.378,0.352,0.322,0.184,0.139,north,4.7,No
2017/05/27,05:00,0.369,0.221,0.378,0.350,0.323,0.185,0.139,north,3.5,No
2017/05/27,05:10,0.369,0.221,0.381,0.352,0.322,0.186,0.140,north,3.6,No
2017/05/27,05:20,0.369,0.222,0.378,0.350,0.321,0.185,0.139,north,5.2,No
2017/05/27,05:30,0.367,0.222,0.381,0.352,0.321,0.184,0.138,north,4.0,No
2017/05/27,05:40,0.370,0.221,0.377,0.349,0.320,0.184,0.138,north,4.4,No
2017/05/27,05:50,0.367,0.223,0.381,0.353,0.322,0.185,0.140,north,4.9,No
2017/05/27,06:00,0.369,0.222,0.380,0.349,0.320,0.185,0.138,north,4.6,No
2017/05/27,06:10,0.366,0.223,0.379,0.352,0.323,0.184,0.139,north,4.8,No
2017/05/27,06:20,0.371,0.223,0.378,0.351,0.319,0.185,0.138,north,4.5,No
2017/05/27,06:30,0.367,0.222,0.378,0.352,0.321,0.183,0.139,north,4.9,No
2017/05/27,06:40,0.370,0.222,0.380,0.351,0.322,0.185,0.140,north,5.3,No
2017/05/27,06:50,0.368,0.221,0.379,0.352,0.323,0.184,0.139,north,5.9,No
2017/05/27,07:00,0.369,0.224,0.380,0.351,0.321,0.185,0.139,north,4.8,Yes
2017/05/27,07:10,0.367,0.223,0.379,0.351,0.321,0.185,0.139,north,4.0,Yes
2017/05/27,07:20,0.368,0.224,0.381,0.350,0.321,0.186,0.140,north-northwest,4.1,Yes
2017/05/27,07:30,0.370,0.225,0.379,0.352,0.323,0.186,0.140,north-northwest,4.7,Yes
2017/05/27,07:40,0.370,0.226,0.383,0.353,0.324,0.188,0.141,north,6.8,Yes
2017/05/27,07:50,0.373,0.226,0.381,0.351,0.323,0.188,0.142,north,6.9,Yes
2017/05/27,08:00,0.371,0.227,0.383,0.353,0.326,0.189,0.142,north,6.3,Yes
2017/05/27,08:10,0.373,0.226,0.381,0.351,0.322,0.189,0.142,north,5.8,Yes
2017/05/27,08:20,0.368,0.226,0.381,0.354,0.324,0.188,0.142,north,5.3,Yes
2017/05/27,08:30,0.373,0.226,0.381,0.350,0.321,0.189,0.143,north-northwest,3.6,Yes
2017/05/27,08:40,0.370,0.226,0.379,0.353,0.325,0.188,0.143,north-northwest,3.8,Yes
2017/05/27,08:50,0.370,0.224,0.381,0.350,0.322,0.189,0.143,north,3.6,Yes
2017/05/27,09:00,0.368,0.225,0.377,0.353,0.325,0.187,0.143,north,3.3,Yes
2017/05/27,09:10,0.370,0.223,0.381,0.348,0.320,0.187,0.142,north,2.6,Yes
2017/05/27,09:20,0.367,0.225,0.377,0.351,0.322,0.188,0.141,north-northwest,1.5,Yes
2017/05/27,09:30,0.369,0.224,0.379,0.351,0.320,0.188,0.141,north,1.6,Yes
2017/05/27,09:40,0.365,0.224,0.377,0.348,0.323,0.187,0.141,north-northeast,1.3,Yes
2017/05/27,09:50,0.369,0.223,0.377,0.351,0.321,0.186,0.141,north-northeast,2.0,No
2017/05/27,10:00,0.365,0.223,0.377,0.347,0.320,0.185,0.139,north-northeast,1.7,No
2017/05/27,10:10,0.369,0.222,0.377,0.352,0.322,0.185,0.139,northeast,2.2,No
2017/05/27,10:20,0.366,0.224,0.378,0.348,0.320,0.186,0.139,northeast,2.4,Yes
2017/05/27,10:30,0.369,0.222,0.378,0.350,0.322,0.185,0.139,north-northeast,2.4,Yes
2017/05/27,10:40,0.367,0.223,0.378,0.347,0.319,0.185,0.140,north-northeast,1.8,Yes
2017/05/27,10:50,0.368,0.223,0.377,0.350,0.323,0.184,0.138,north-northeast,2.5,Yes
2017/05/27,11:00,0.369,0.224,0.379,0.348,0.319,0.185,0.140,northeast,2.5,No
2017/05/27,11:10,0.366,0.222,0.377,0.350,0.323,0.185,0.140,east-northeast,2.6,No
2017/05/27,11:20,0.367,0.223,0.379,0.348,0.321,0.185,0.140,east-northeast,1.9,No
2017/05/27,11:30,0.366,0.221,0.375,0.348,0.321,0.185,0.139,east-northeast,1.6,No
2017/05/27,11:40,0.369,0.222,0.378,0.349,0.321,0.185,0.139,northeast,2.8,No
2017/05/27,11:50,0.365,0.221,0.376,0.347,0.320,0.185,0.138,northeast,1.1,No
2017/05/27,12:00,0.366,0.222,0.378,0.351,0.323,0.183,0.138,east-northeast,1.0,No
2017/05/27,12:10,0.365,0.221,0.376,0.347,0.318,0.184,0.139,east,1.1,No
2017/05/27,12:20,0.369,0.223,0.379,0.350,0.323,0.184,0.138,southeast,1.1,No
2017/05/27,12:30,0.367,0.221,0.374,0.347,0.320,0.185,0.138,south,1.4,No
2017/05/27,12:40,0.365,0.222,0.376,0.348,0.320,0.184,0.138,south-southeast,1.2,No
2017/05/27,12:50,0.368,0.221,0.378,0.348,0.321,0.185,0.138,south-southwest,0.9,No
2017/05/27,13:00,0.367,0.223,0.378,0.349,0.320,0.184,0.138,south-southwest,1.3,Yes
2017/05/27,13:10,0.369,0.223,0.379,0.351,0.323,0.186,0.141,south-southwest,1.7,Yes
2017/05/27,13:20,0.368,0.226,0.380,0.351,0.324,0.188,0.141,south,1.2,Yes
2017/05/27,13:30,0.371,0.225,0.380,0.353,0.326,0.189,0.143,south,1.4,Yes
2017/05/27,13:40,0.369,0.227,0.379,0.352,0.322,0.188,0.142,south,0.8,No
2017/05/27,13:50,0.370,0.226,0.381,0.354,0.326,0.188,0.142,east,0.6,No
2017/05/27,14:00,0.367,0.225,0.380,0.350,0.321,0.188,0.142,east-southeast,0.8,No
2017/05/27,14:10,0.372,0.224,0.381,0.353,0.324,0.186,0.142,east-northeast,0.7,No
2017/05/27,14:20,0.367,0.225,0.378,0.349,0.323,0.188,0.140,east-northeast,1.1,No
2017/05/27,14:30,0.369,0.223,0.379,0.352,0.319,0.186,0.140,south-southwest,0.5,No
2017/05/27,14:40,0.368,0.224,0.376,0.348,0.323,0.187,0.140,southwest,0.8,No
2017/05/27,14:50,0.367,0.221,0.380,0.350,0.319,0.185,0.138,-,CALM,No
2017/05/27,15:00,0.370,0.224,0.374,0.349,0.323,0.186,0.140,south-southeast,0.6,No
2017/05/27,15:10,0.366,0.222,0.378,0.349,0.322,0.186,0.139,southwest,1.1,No
2017/05/27,15:20,0.369,0.222,0.377,0.349,0.318,0.184,0.140,west-southwest,1.4,No
2017/05/27,15:30,0.366,0.223,0.375,0.346,0.321,0.185,0.139,southwest,1.4,No
2017/05/27,15:40,0.367,0.222,0.379,0.351,0.319,0.185,0.138,west-southwest,0.8,No
2017/05/27,15:50,0.368,0.222,0.375,0.348,0.316,0.184,0.140,-,CALM,No
2017/05/27,16:00,0.365,0.222,0.378,0.347,0.320,0.185,0.138,-,CALM,No
2017/05/27,16:10,0.368,0.221,0.378,0.350,0.319,0.185,0.138,south,0.8,No
2017/05/27,16:20,0.367,0.222,0.375,0.346,0.318,0.184,0.138,south-southeast,1.2,No
2017/05/27,16:30,0.366,0.222,0.377,0.349,0.323,0.185,0.139,south-southeast,2.5,No
2017/05/27,16:40,0.368,0.222,0.376,0.347,0.320,0.184,0.139,south,2.1,No
2017/05/27,16:50,0.366,0.221,0.378,0.351,0.323,0.184,0.138,south,2.1,No
2017/05/27,17:00,0.369,0.222,0.376,0.350,0.320,0.184,0.139,south,3.4,No
2017/05/27,17:10,0.367,0.221,0.379,0.351,0.322,0.185,0.138,south,3.1,No
2017/05/27,17:20,0.369,0.223,0.376,0.350,0.322,0.185,0.139,south,2.2,No
2017/05/27,17:30,0.368,0.222,0.378,0.349,0.321,0.186,0.138,south-southwest,2.6,Yes
2017/05/27,17:40,0.368,0.222,0.377,0.350,0.323,0.185,0.139,south,1.9,No
2017/05/27,17:50,0.368,0.222,0.378,0.347,0.320,0.185,0.139,south,1.7,No
2017/05/27,18:00,0.369,0.223,0.376,0.350,0.322,0.185,0.139,south-southwest,2.0,No
2017/05/27,18:10,0.368,0.223,0.380,0.348,0.320,0.184,0.138,south-southwest,1.3,No
2017/05/27,18:20,0.365,0.223,0.376,0.351,0.322,0.185,0.139,south-southwest,1.2,No
2017/05/27,18:30,0.369,0.221,0.379,0.348,0.320,0.184,0.138,south-southwest,0.8,No
2017/05/27,18:40,0.366,0.223,0.377,0.349,0.322,0.185,0.139,south,0.6,No
2017/05/27,18:50,0.371,0.222,0.378,0.347,0.318,0.184,0.140,-,CALM,No
2017/05/27,19:00,0.365,0.222,0.376,0.352,0.322,0.185,0.139,southwest,0.6,No
2017/05/27,19:10,0.368,0.222,0.380,0.348,0.319,0.185,0.139,southwest,0.9,No
2017/05/27,19:20,0.367,0.221,0.376,0.351,0.323,0.184,0.139,southwest,1.0,No
2017/05/27,19:30,0.370,0.223,0.379,0.348,0.321,0.184,0.140,south-southwest,0.6,No
2017/05/27,19:40,0.366,0.222,0.377,0.350,0.323,0.184,0.138,south-southwest,0.6,No
2017/05/27,19:50,0.371,0.223,0.379,0.347,0.319,0.185,0.140,southwest,0.5,No
2017/05/27,20:00,0.367,0.223,0.378,0.352,0.323,0.185,0.138,south-southwest,1.0,No
2017/05/27,20:10,0.369,0.223,0.379,0.349,0.320,0.185,0.138,south-southwest,1.3,No
2017/05/27,20:20,0.368,0.223,0.376,0.353,0.322,0.184,0.139,southwest,0.6,No
2017/05/27,20:30,0.369,0.223,0.381,0.349,0.320,0.185,0.140,west-southwest,1.4,No
2017/05/27,20:40,0.367,0.223,0.376,0.352,0.323,0.185,0.139,west-northwest,1.9,No
2017/05/27,20:50,0.369,0.223,0.380,0.348,0.320,0.186,0.139,west-northwest,2.1,No
2017/05/27,21:00,0.367,0.224,0.377,0.352,0.324,0.185,0.138,west-northwest,1.5,No
2017/05/27,21:10,0.369,0.222,0.379,0.350,0.320,0.185,0.140,west-northwest,1.3,No
2017/05/27,21:20,0.367,0.223,0.378,0.349,0.323,0.185,0.139,west,1.3,No
2017/05/27,21:30,0.368,0.222,0.380,0.348,0.321,0.185,0.140,west-northwest,1.8,No
2017/05/27,21:40,0.368,0.222,0.378,0.349,0.323,0.185,0.139,west-northwest,1.6,No
2017/05/27,21:50,0.370,0.224,0.379,0.351,0.321,0.186,0.139,northwest,0.8,No
2017/05/27,22:00,0.369,0.223,0.378,0.349,0.322,0.185,0.138,northwest,1.1,No
2017/05/27,22:10,0.368,0.223,0.380,0.350,0.322,0.185,0.140,north-northwest,0.8,No
2017/05/27,22:20,0.368,0.222,0.379,0.350,0.323,0.185,0.139,northeast,0.9,No
2017/05/27,22:30,0.368,0.223,0.379,0.351,0.321,0.185,0.139,east,1.0,No
2017/05/27,22:40,0.370,0.222,0.377,0.350,0.321,0.185,0.139,east-southeast,1.7,No
2017/05/27,22:50,0.367,0.223,0.378,0.350,0.321,0.186,0.139,south-southeast,2.8,No
2017/05/27,23:00,0.369,0.221,0.378,0.349,0.321,0.184,0.140,south,2.8,No
2017/05/27,23:10,0.366,0.223,0.378,0.350,0.322,0.186,0.139,south,2.0,No
2017/05/27,23:20,0.370,0.222,0.379,0.348,0.322,0.184,0.139,south-southeast,1.7,No
2017/05/27,23:30,0.368,0.222,0.378,0.350,0.320,0.185,0.139,southeast,1.8,No
2017/05/27,23:40,0.369,0.222,0.379,0.348,0.323,0.184,0.139,south-southeast,1.9,No
2017/05/27,23:50,0.368,0.222,0.378,0.351,0.321,0.185,0.139,south-southeast,1.4,No
